Waarnemingen

Advertentie
Mijn weer
Loch Glascarnoch, Groot Brittannië (3031): temperatuur & dauwpunt: 21.01.2021 13:00:00 - 27.01.2021 13:00:00 (GMT)Loch Glascarnoch, Groot Brittannië (3031): temperatuur -20cm & temperatuur -100cm: 21.01.2021 13:00:00 - 27.01.2021 13:00:00 (GMT)Loch Glascarnoch, Groot Brittannië (3031): windsnelheid & windstoten: 21.01.2021 13:00:00 - 27.01.2021 13:00:00 (GMT)Loch Glascarnoch, Groot Brittannië (3031): windrichting: 21.01.2021 13:00:00 - 27.01.2021 13:00:00 (GMT)Loch Glascarnoch, Groot Brittannië (3031): luchtdruk: 21.01.2021 13:00:00 - 27.01.2021 13:00:00 (GMT)Loch Glascarnoch, Groot Brittannië (3031): zicht: 21.01.2021 13:00:00 - 27.01.2021 13:00:00 (GMT)Loch Glascarnoch, Groot Brittannië (3031): Zonneschijnduur: 21.01.2021 13:00:00 - 27.01.2021 13:00:00 (GMT)Loch Glascarnoch, Groot Brittannië (3031): neerslag: 21.01.2021 13:00:00 - 27.01.2021 13:00:00 (GMT)
Datum & Tijd tt [°C] td [°C] tt -20cm [°C] tt -100cm [°C] ff [km/u] ff [kn] fx [km/u] fx [kn] dd ppp [hPa] vv [km] sd [min] rr [mm]
27.01.2021 13:00:00 - - - - - - - - - - - - -
27.01.2021 12:00:00 2,0 -1,3 - - 26 14 - - NO 1011,6 35 0 0,6
27.01.2021 11:00:00 1,1 -1,1 - - 34 18 46 25 ONO 1011,3 50 0 0,6
27.01.2021 10:00:00 1,8 -0,6 - - 5 3 - - ZO 1010,9 50 0 0,2
27.01.2021 09:00:00 2,0 -0,5 1,9 2,9 4 2 - - WNW 1010,3 50 0 0,2
27.01.2021 08:00:00 2,0 0,0 - - 11 6 - - W 1009,3 50 0 0,0
27.01.2021 07:00:00 1,7 0,6 - - 5 3 - - N 1008,6 10 0 0,0
27.01.2021 06:00:00 0,8 0,1 - - 5 3 - - WZW 1007,9 35 0 0,0
27.01.2021 05:00:00 1,2 -0,1 - - 5 3 - - NNO 1007,5 50 0 0,0
27.01.2021 04:00:00 -0,1 -0,9 - - 2 1 - - ZO 1006,9 35 0 0,0
27.01.2021 03:00:00 -0,1 -0,8 - - 4 2 - - O 1006,6 50 0 0,0
27.01.2021 02:00:00 0,1 -0,7 - - 4 2 - - ZW 1006,3 50 0 0,0
27.01.2021 01:00:00 0,4 -0,7 - - 8 4 - - NNO 1006,2 50 0 0,0
27.01.2021 00:00:00 0,8 -0,2 - - 5 3 - - Z 1006,2 50 - 0,0
26.01.2021 23:00:00 0,8 -0,2 - - 9 5 - - OZO 1006,1 35 0 0,0
26.01.2021 22:00:00 0,8 -0,1 - - 13 7 - - ZO 1006,1 50 0 0,0
26.01.2021 21:00:00 0,7 -0,2 - - 9 5 - - ZO 1006,0 50 0 0,0
26.01.2021 20:00:00 0,6 -0,6 - - 15 8 - - ZO 1006,2 40 0 0,0
26.01.2021 19:00:00 0,9 -0,4 - - 15 8 - - ZO 1006,4 35 0 0,0
26.01.2021 18:00:00 0,9 -1,0 - - 11 6 - - ZO 1006,7 17 0 0,0
26.01.2021 17:00:00 0,9 -0,9 - - 11 6 - - O 1007,0 40 0 0,0
26.01.2021 16:00:00 -0,4 -2,0 - - 2 1 - - NO 1007,5 50 0 0,0
26.01.2021 15:00:00 -0,5 -2,3 - - 8 4 - - NO 1007,9 50 0 0,0
26.01.2021 14:00:00 -0,8 -2,3 - - 5 3 - - NO 1009,2 40 0 0,0
26.01.2021 13:00:00 -0,4 -1,8 - - 4 2 - - ZW 1009,6 45 0 0,0
26.01.2021 12:00:00 0,0 -1,6 - - 0 0 - - N 1010,4 45 0 0,0
26.01.2021 11:00:00 -3,8 -4,4 - - 0 0 - - N 1011,0 45 0 0,0
26.01.2021 10:00:00 -5,7 -6,3 - - 0 0 - - N 1011,2 40 0 0,0
26.01.2021 09:00:00 -6,1 -6,8 1,9 2,9 0 0 - - N 1011,7 30 0 0,0
26.01.2021 08:00:00 -6,3 -7,0 - - 0 0 - - N 1012,1 35 0 0,0
26.01.2021 07:00:00 -5,7 -6,2 - - 0 0 - - N 1012,3 50 0 0,0
26.01.2021 06:00:00 -8,2 -9,1 - - 0 0 - - N 1013,1 40 0 0,0
26.01.2021 05:00:00 -7,7 -8,4 - - 0 0 - - N 1012,8 50 0 0,0
26.01.2021 04:00:00 -6,7 -7,9 - - 0 0 - - N 1012,4 50 0 0,0
26.01.2021 03:00:00 -6,1 -6,8 - - 0 0 - - N 1012,4 40 0 0,0
26.01.2021 02:00:00 -5,4 -6,1 - - 0 0 - - N 1012,4 50 0 0,0
26.01.2021 01:00:00 -3,6 -4,8 - - 0 0 - - N 1012,0 50 0 0,0
26.01.2021 00:00:00 -1,4 -2,0 - - 0 0 - - N 1011,5 45 - 0,0
25.01.2021 23:00:00 -0,9 -1,5 - - 0 0 - - N 1011,0 35 0 0,0
25.01.2021 22:00:00 -0,9 -1,6 - - 0 0 - - N 1010,9 50 0 0,0
25.01.2021 21:00:00 -1,2 -1,8 - - 0 0 - - N 1010,7 50 0 0,0
25.01.2021 20:00:00 -1,4 -2,4 - - 2 1 - - WNW 1010,4 50 0 0,0
25.01.2021 19:00:00 -0,1 -0,6 - - 11 6 - - WNW 1009,3 50 0 0,0
25.01.2021 18:00:00 0,5 0,3 - - 15 8 - - WNW 1008,7 12 0 0,0
25.01.2021 17:00:00 0,5 0,3 - - 18 10 - - W 1008,3 4,8 0 0,2
25.01.2021 16:00:00 0,4 0,0 - - 24 13 - - W 1007,7 2,2 0 1,0
25.01.2021 15:00:00 0,8 0,2 - - 21 11 - - W 1007,0 6 18 9,4
25.01.2021 14:00:00 1,2 0,9 - - 5 3 - - W 1006,5 27 6 0,0
25.01.2021 13:00:00 0,6 0,1 - - 15 8 - - W 1006,5 10 0 0,2
25.01.2021 12:00:00 0,8 0,2 - - 13 7 - - W 1005,8 8 0 0,0
25.01.2021 11:00:00 1,1 1,0 - - 4 2 - - WNW 1005,1 35 6 0,0
25.01.2021 10:00:00 0,5 0,4 - - 11 6 - - WNW 1004,4 4,0 0 0,0
25.01.2021 09:00:00 0,3 0,0 1,9 2,9 13 7 - - WNW 1003,8 21 0 0,0
25.01.2021 08:00:00 0,7 0,5 - - 15 8 - - WNW 1002,9 7 0 0,0
25.01.2021 07:00:00 0,7 0,5 - - 9 5 - - WNW 1002,1 15 0 0,0
25.01.2021 06:00:00 0,6 0,3 - - 15 8 - - WNW 1001,6 4,9 0 0,0
25.01.2021 05:00:00 0,5 0,1 - - 24 13 - - W 1001,0 11 0 0,0
25.01.2021 04:00:00 1,5 1,2 - - 26 14 57 31 WNW 999,8 15 0 0,0
25.01.2021 03:00:00 1,3 0,8 - - 28 15 50 27 WNW 999,1 3,8 0 0,0
25.01.2021 02:00:00 1,5 0,4 - - 35 19 57 31 WNW 998,5 10 0 0,0
25.01.2021 01:00:00 1,6 0,5 - - 28 15 50 27 WNW 998,2 24 0 0,0
25.01.2021 00:00:00 1,0 0,7 - - 24 13 - - W 998,1 45 - 0,0
24.01.2021 23:00:00 1,0 0,7 - - 24 13 - - W 997,6 7 0 0,0
24.01.2021 22:00:00 0,4 0,0 - - 29 16 - - WNW 997,1 0,8 0 0,0
24.01.2021 21:00:00 0,5 0,1 - - 34 18 59 32 WNW 997,0 1,9 0 0,0
24.01.2021 20:00:00 0,6 0,0 - - 31 17 - - W 996,9 0,8 0 0,0
24.01.2021 19:00:00 0,5 -0,1 - - 26 14 61 33 WNW 996,3 5 0 0,0
24.01.2021 18:00:00 1,2 -0,5 - - 29 16 46 25 W 996,6 2,1 0 0,0
24.01.2021 17:00:00 0,8 -0,3 - - 22 12 50 27 W 996,4 25 0 0,0
24.01.2021 16:00:00 1,2 -1,5 - - 31 17 - - W 996,0 25 0 0,0
24.01.2021 15:00:00 0,9 -2,0 - - 28 15 - - W 996,0 50 42 0,0
24.01.2021 14:00:00 -0,2 -1,6 - - 8 4 - - OZO 996,3 35 54 0,0
24.01.2021 13:00:00 -3,5 -5,1 - - 0 0 - - N 997,0 22 30 0,0
24.01.2021 12:00:00 -3,6 -5,1 - - 0 0 - - N 996,7 45 60 0,0
24.01.2021 11:00:00 -3,8 -4,4 - - 0 0 - - N 996,4 35 48 0,0
24.01.2021 10:00:00 -5,5 -6,0 - - 0 0 - - N 996,3 40 0 0,0
24.01.2021 09:00:00 -5,8 -6,4 1,7 2,9 0 0 - - N 996,0 30 0 0,0
24.01.2021 08:00:00 -5,2 -5,7 - - 0 0 - - N 995,4 8 0 0,0
24.01.2021 07:00:00 -5,0 -5,5 - - 0 0 - - N 994,9 50 0 0,0
24.01.2021 06:00:00 -6,0 -7,8 - - 0 0 - - N 994,7 50 0 0,0
24.01.2021 05:00:00 -2,4 -3,5 - - 0 0 - - N 994,1 50 0 0,0
24.01.2021 04:00:00 -2,6 -3,9 - - 0 0 - - N 994,0 50 0 0,0
24.01.2021 03:00:00 -1,8 -2,2 - - 0 0 - - N 993,7 9 0 0,0
24.01.2021 02:00:00 -2,6 -3,0 - - 0 0 - - N 993,8 18 0 0,0
24.01.2021 01:00:00 -3,0 -3,6 - - 0 0 - - N 993,7 50 0 0,0
24.01.2021 00:00:00 -2,9 -3,4 - - 0 0 - - N 993,3 26 - 0,0
23.01.2021 23:00:00 -4,3 -5,0 - - 0 0 - - N 993,2 50 0 0,0
23.01.2021 22:00:00 -2,2 -2,7 - - 0 0 - - N 992,6 7 0 0,0
23.01.2021 21:00:00 -2,3 -3,0 - - 0 0 - - N 992,6 19 0 0,0
23.01.2021 20:00:00 -0,9 -1,4 - - 0 0 - - N 992,0 11 0 0,0
23.01.2021 19:00:00 -1,5 -2,8 - - 0 0 - - N 991,6 50 0 0,0
23.01.2021 18:00:00 -1,5 -2,1 - - 0 0 - - N 991,5 25 0 0,0
23.01.2021 17:00:00 -1,8 -3,3 - - 4 2 - - N 991,3 12 0 0,0
23.01.2021 16:00:00 -1,0 -2,6 - - 8 4 - - NO 991,2 50 0 0,0
23.01.2021 15:00:00 -1,9 -3,7 - - 5 3 - - Z 991,3 17 18 0,0
23.01.2021 14:00:00 -2,0 -5,1 - - 15 8 - - WNW 991,4 40 36 0,0
23.01.2021 13:00:00 -0,5 -3,0 - - 16 9 - - W 991,2 27 48 0,0
23.01.2021 12:00:00 -3,5 -6,8 - - 5 3 - - WZW 991,9 50 48 0,0
23.01.2021 11:00:00 -2,6 -3,6 - - 0 0 - - N 991,4 13 18 0,0
23.01.2021 10:00:00 -1,8 -2,2 - - 0 0 - - N 991,3 0,5 0 0,0
23.01.2021 09:00:00 -6,1 -6,9 1,7 3,0 0 0 - - N 991,6 35 0 0,0
23.01.2021 08:00:00 -5,2 -5,9 - - 0 0 - - N 991,2 30 0 0,0
23.01.2021 07:00:00 -6,9 -8,6 - - 0 0 - - N 991,2 45 0 0,0
23.01.2021 06:00:00 -3,1 -5,1 - - 0 0 - - N 990,5 40 0 0,0
23.01.2021 05:00:00 -2,2 -2,6 - - 0 0 - - N 990,3 30 0 0,0
23.01.2021 04:00:00 -3,4 -4,0 - - 0 0 - - N 990,4 45 0 0,0
23.01.2021 03:00:00 -2,1 -2,8 - - 0 0 - - N 990,1 5 0 0,0
23.01.2021 02:00:00 -1,3 -2,0 - - 0 0 - - N 989,7 1,3 0 0,0
23.01.2021 01:00:00 -0,7 -1,1 - - 0 0 - - N 989,3 1,0 0 0,0
23.01.2021 00:00:00 -1,1 -1,6 - - 0 0 - - N 989,1 2,0 - 0,0
22.01.2021 23:00:00 -1,0 -1,5 - - 0 0 - - N 988,8 1,8 0 0,0
22.01.2021 22:00:00 -1,1 -1,9 - - 0 0 - - N 988,4 40 0 0,0
22.01.2021 21:00:00 -2,0 -3,4 - - 0 0 - - N 988,4 26 0 0,0
22.01.2021 20:00:00 -1,0 -2,3 - - 15 8 - - WNW 988,3 9 0 0,0
22.01.2021 19:00:00 -1,7 -2,8 - - 18 10 - - W 987,9 30 0 0,0
22.01.2021 18:00:00 -0,4 -1,4 - - 15 8 - - WNW 987,7 4,6 0 0,0
22.01.2021 17:00:00 -1,0 -1,6 - - 15 8 - - WNW 987,3 8 0 0,0
22.01.2021 16:00:00 -0,4 -1,1 - - 15 8 - - WNW 987,0 11 0 0,0
22.01.2021 15:00:00 -0,2 -0,6 - - 22 12 - - WNW 986,9 1,7 6 0,4
22.01.2021 14:00:00 0,3 -0,3 - - 16 9 - - WNW 985,9 30 18 0,2
22.01.2021 13:00:00 -0,5 -0,8 - - 18 10 - - W 986,2 6 0 0,0
22.01.2021 12:00:00 -0,1 -1,1 - - 18 10 - - WNW 985,9 22 0 0,2
22.01.2021 11:00:00 0,8 -0,9 - - 24 13 - - WNW 985,4 12 0 0,0
22.01.2021 10:00:00 0,6 -1,4 - - 22 12 - - NW 984,8 22 0 0,0
22.01.2021 09:00:00 0,5 -1,7 1,7 3,0 18 10 - - NW 984,1 17 0 0,0
22.01.2021 08:00:00 1,3 -1,6 - - 29 16 - - NW 983,3 18 0 0,4
22.01.2021 07:00:00 1,1 -0,6 - - 26 14 - - WNW 982,5 3,5 0 0,0
22.01.2021 06:00:00 0,6 -0,1 - - 21 11 - - WNW 981,8 30 0 0,0
22.01.2021 05:00:00 0,4 -0,7 - - 26 14 50 27 WNW 981,2 45 0 0,4
22.01.2021 04:00:00 1,0 -0,4 - - 34 18 54 29 NW 980,4 6 0 0,8
22.01.2021 03:00:00 1,2 0,7 - - 31 17 54 29 NW 979,8 10 0 0,4
22.01.2021 02:00:00 0,6 0,3 - - 31 17 46 25 WNW 978,8 5 0 0,4
22.01.2021 01:00:00 0,2 -0,1 - - 28 15 54 29 WNW 978,3 0,6 0 0,4
22.01.2021 00:00:00 0,7 0,1 - - 28 15 59 32 WNW 977,6 29 - 0,4
21.01.2021 23:00:00 0,9 0,0 - - 37 20 54 29 WNW 976,9 1,7 0 1,0
21.01.2021 22:00:00 1,5 0,2 - - 35 19 61 33 WNW 976,2 5 0 1,6
21.01.2021 21:00:00 1,6 0,4 - - 37 20 54 29 WNW 976,0 14 0 1,2
21.01.2021 20:00:00 1,2 0,0 - - 35 19 65 35 WNW 975,7 2,1 0 1,2
21.01.2021 19:00:00 0,6 -0,5 - - 28 15 61 33 WNW 975,3 15 0 0,8
21.01.2021 18:00:00 0,7 -0,1 - - 39 21 57 31 WNW 975,3 1,1 0 0,8
21.01.2021 17:00:00 1,1 0,2 - - 34 18 67 36 NW 974,3 3,8 0 0,2
21.01.2021 16:00:00 2,0 0,0 - - 35 19 55 30 NW 973,7 21 0 0,0
21.01.2021 15:00:00 2,1 0,1 - - 34 18 52 28 NW 973,0 22 0 0,2
21.01.2021 14:00:00 1,7 0,0 - - 34 18 48 26 NW 972,8 40 0 0,6
21.01.2021 13:00:00 1,2 0,2 - - 28 15 61 33 WNW 972,3 9 0 0,2

tt = temperatuur
td = dauwpunt
tt -20cm = temperatuur -20cm
tt -100cm = temperatuur -100cm
ff = windsnelheid
fx = windstoten
dd = windrichting
ppp = luchtdruk
vv = zicht
sd = Zonneschijnduur
rr = neerslag

Weerstations in de omgeving